Wind_Speed
10 9 9 9 10 11 11 12 12 11 11 11 10 10 9 9 9 9 9 9 9 9 9 8 8 8 7 7 8 7 7 7 7 7 7 7 7 7 7 7 6 6 6
10 9 8 9 10 10 11 11 11 10 10 10 9 9 9 9 9 9 9 9 9 8 8 8 8 7 7 7 8 7 7 6 6 6 7 7 7 6 6 6 6 6 6
9 9 8 8 9 9 9 10 10 9 9 9 9 9 9 8 8 8 8 8 8 8 8 7 7 7 7 7 6 6 6 5 5 5 5 5 6 6 6 5 5 5 5
8 8 8 8 8 8 8 9 9 9 9 9 9 8 8 8 8 8 8 8 7 7 7 7 6 6 6 5 5 5 5 5 5 5 5 5 5 5 5 5 5 5 5
7 7 7 8 8 8 8 8 8 9 9 9 9 8 8 8 8 8 7 7 7 7 7 6 6 5 5 5 4 4 4 4 4 4 5 5 4 4 4 4 4 4 4
7 7 7 8 8 8 8 8 8 9 8 8 8 8 8 8 8 7 7 7 7 6 6 6 5 5 5 4 5 4 4 3 3 4 4 4 3 3 3 4 4 4 4
6 7 7 7 7 7 7 7 7 8 8 8 8 7 7 7 7 7 7 7 6 6 6 5 4 5 4 4 4 4 3 3 4 4 3 3 2 2 3 3 3 3 3
6 6 6 7 7 7 7 7 7 7 7 7 7 7 7 7 7 7 7 6 6 6 5 5 4 4 4 4 4 3 3 3 3 3 3 2 2 2 2 2 2 2 2
6 6 6 6 6 6 6 6 6 6 6 6 6 6 6 6 6 6 6 6 5 5 5 4 4 3 4 4 4 3 4 3 3 3 2 2 2 1 1 1 1 1 1
6 6 6 6 5 5 5 5 6 6 6 5 5 5 5 5 5 5 5 5 4 4 4 4 3 4 4 3 3 3 3 3 3 2 2 2 2 1 1 1 1 1 1
6 6 5 5 5 5 5 4 4 4 4 4 4 4 4 4 4 4 4 4 4 4 3 4 3 3 3 3 3 3 3 3 3 3 2 2 1 1 0 0 1 1 1
5 5 5 4 4 4 4 3 4 3 3 3 3 3 3 3 3 3 3 3 3 3 3 3 3 3 3 3 3 3 3 3 3 3 2 2 1 1 1 1 1 1 1
5 5 5 4 3 3 3 2 3 3 2 2 2 2 2 2 2 2 2 2 2 2 2 2 2 3 3 3 3 3 3 3 3 3 2 2 1 1 1 1 1 1 1
5 4 4 4 3 3 2 1 1 1 1 1 1 1 2 1 1 1 2 2 2 2 1 1 1 1 2 2 2 2 2 3 2 2 2 1 1 1 1 1 0 1 2
4 4 4 3 3 3 2 1 0 0 1 1 1 1 1 0 1 1 1 1 1 1 1 1 0 1 1 2 2 2 2 2 2 2 2 1 1 1 1 1 1 1 2
4 4 4 4 4 3 3 3 2 2 3 3 2 2 1 1 1 1 1 0 0 0 0 0 1 1 2 2 2 2 2 2 2 2 2 1 1 1 1 1 1 1 2
5 4 3 4 4 4 4 4 4 4 4 3 3 3 3 3 2 2 1 0 0 0 1 1 1 1 2 1 1 1 1 2 2 2 2 1 1 1 1 1 1 2 2
5 4 4 4 5 5 5 4 4 5 4 4 4 4 4 4 3 3 3 2 1 1 1 1 1 1 2 2 1 1 1 2 2 2 2 2 1 1 2 1 1 1 2
5 5 5 5 5 5 5 5 5 4 4 4 5 4 5 5 4 4 4 4 3 2 1 2 2 2 2 2 2 2 2 2 2 3 2 2 2 1 1 1 1 1 2
7 6 6 6 6 5 5 5 5 4 4 4 4 4 5 6 5 5 5 5 4 3 2 2 2 3 3 3 3 2 2 2 2 2 2 2 2 1 1 1 1 2 2
7 7 7 7 7 6 5 6 5 5 5 4 4 5 5 6 7 6 6 6 6 5 3 3 3 3 3 3 4 4 4 3 3 2 2 2 2 2 2 2 2 2 2
8 8 8 8 8 7 7 7 7 6 6 5 5 6 7 8 8 8 8 8 7 6 6 5 4 4 4 4 4 5 5 4 4 3 3 3 3 3 3 2 3 3 3
9 9 9 9 9 9 9 9 8 7 7 7 7 7 8 9 9 10 9 9 9 8 7 6 6 5 5 5 5 5 5 5 5 5 4 4 4 4 4 4 4 4 4
10 10 9 9 9 10 10 9 9 8 8 8 8 8 8 9 10 10 10 10 9 9 8 7 6 6 6 6 6 6 6 6 6 6 6 6 6 6 5 5 5 5 6
11 10 10 10 10 10 10 10 10 9 9 9 9 9 10 9 10 11 11 11 11 10 10 9 8 7 7 7 7 7 7 7 7 7 8 8 8 7 7 7 7 6 6
12 11 11 10 10 10 11 11 11 10 10 9 9 10 10 10 11 12 12 13 12 12 11 10 10 9 8 8 8 9 9 9 9 9 9 9 9 9 8 8 8 8 8
Wind_Direction
60 61 68 76 80 81 79 79 78 78 79 75 71 71 72 72 75 77 78 81 84 88 92 93 95 94 92 89 91 93 98 102 100 100 101 100 98 96 95 92 88 86 88
56 57 66 74 77 79 82 82 80 79 78 74 70 70 68 71 73 75 77 79 84 87 88 89 90 90 91 92 94 91 95 95 101 102 100 98 98 99 100 92 89 90 90
52 53 62 71 75 78 81 82 81 78 77 76 70 68 68 71 72 73 76 80 82 82 84 86 87 91 91 91 90 93 95 94 99 104 99 98 102 105 102 95 91 89 88
45 48 56 70 76 79 82 83 85 83 81 78 72 69 67 69 71 73 75 77 77 80 83 82 83 88 88 90 93 98 99 96 95 102 97 98 102 103 98 97 90 87 91
41 44 52 61 70 75 81 82 88 88 83 77 73 69 68 67 67 69 73 76 78 79 79 81 81 82 83 89 97 102 102 94 97 99 96 99 100 99 93 94 91 90 94
39 44 52 57 67 74 77 79 85 84 81 76 72 69 67 65 64 65 70 75 77 77 75 77 82 88 90 88 94 95 94 87 95 103 97 94 89 86 87 92 94 92 94
40 47 52 53 62 69 76 80 85 86 82 79 74 69 67 65 64 66 68 69 69 73 72 74 78 88 90 85 86 82 79 91 99 91 90 87 76 68 82 90 94 90 86
42 48 53 56 62 68 76 81 86 87 84 81 75 70 69 68 68 68 68 66 66 64 67 68 70 81 78 78 72 68 82 90 90 85 76 69 63 77 96 89 95 94 85
47 52 55 58 61 64 73 84 88 88 87 83 76 70 70 69 69 69 70 68 64 62 65 69 73 72 70 69 63 66 75 78 77 80 74 61 62 78 91 89 91 84 63
45 51 58 62 59 60 72 88 95 94 91 83 78 75 70 69 68 69 73 70 67 65 62 64 72 70 69 64 62 63 62 63 65 72 76 63 68 78 73 101 83 64 44
40 48 53 58 60 61 70 87 96 95 92 85 77 70 66 67 66 69 71 66 65 65 64 60 66 69 72 68 63 60 59 56 62 63 62 47 48 96 112 104 117 33 6
37 43 47 51 60 62 64 77 88 88 87 80 72 60 55 59 60 64 67 61 62 62 52 58 59 64 76 72 59 51 58 55 62 56 49 26 48 98 125 113 88 2 346
32 39 43 44 50 51 55 76 81 78 78 71 61 48 43 43 49 62 67 56 58 51 47 54 55 57 59 61 59 56 54 48 52 49 47 43 62 85 93 114 94 32 351
21 26 31 27 26 25 35 69 83 86 72 68 52 36 15 18 59 68 67 58 49 39 28 48 71 47 36 32 42 42 37 36 39 42 46 40 35 50 31 24 9 359 342
6 7 5 3 0 1 6 7 341 274 290 274 295 356 360 109 140 123 107 68 35 29 25 47 182 330 357 2 13 16 25 17 20 24 20 1 13 17 10 355 332 349 348
350 351 352 345 335 327 329 327 312 280 280 271 270 267 251 229 198 192 187 138 19 19 183 194 276 297 316 333 345 355 2 2 2 5 10 14 351 337 348 328 332 12 356
344 336 337 333 326 320 315 316 302 284 275 261 264 254 237 226 216 231 219 181 161 233 186 217 256 285 295 321 337 339 339 354 4 359 7 16 344 281 306 299 327 12 16
337 332 324 328 327 318 307 310 302 291 291 273 270 258 242 230 228 234 237 239 250 240 217 212 244 289 304 321 320 325 329 343 349 341 343 342 319 295 310 322 320 16 13
326 323 315 310 316 313 303 299 300 295 293 275 267 261 240 229 231 234 237 234 242 246 235 235 248 263 277 296 298 301 312 328 330 320 318 326 316 307 299 284 274 307 323
315 311 303 303 307 309 304 295 294 287 276 264 262 263 241 234 229 233 239 237 236 236 234 236 250 244 256 272 277 279 283 297 306 309 311 319 320 312 290 272 281 292 294
307 307 301 298 298 298 295 290 286 278 280 276 267 268 252 234 228 228 232 235 236 238 237 237 245 249 251 259 261 264 271 279 284 287 291 296 302 303 291 282 296 298 290
298 298 301 299 295 292 287 285 282 282 287 283 273 264 249 234 231 229 230 234 236 239 241 246 251 250 254 263 260 262 264 269 270 269 274 290 291 289 289 288 297 297 287
293 289 291 292 289 289 287 281 281 277 278 272 264 254 244 234 232 231 234 236 239 241 243 251 253 252 259 264 263 263 264 264 265 265 268 277 279 277 279 283 287 289 286
285 282 282 287 287 287 283 276 271 267 268 267 258 251 246 237 234 232 234 236 239 242 244 249 254 256 257 261 267 265 265 263 264 266 268 270 269 269 271 276 282 282 280
278 277 277 280 284 285 281 275 271 267 265 265 257 251 250 244 236 237 238 239 240 242 244 248 250 256 262 263 265 265 264 264 265 266 266 269 269 267 267 270 274 276 278
272 274 276 281 282 279 276 273 270 268 264 263 255 251 250 245 240 241 241 242 244 245 246 247 248 254 260 262 263 264 263 263 266 267 268 271 270 268 267 268 271 274 278
Height
5883 5882 5881 5881 5881 5881 5881 5881 5881 5882 5882 5883 5883 5884 5884 5885 5885 5886 5886 5886 5887 5887 5888 5888 5888 5888 5889 5889 5889 5890 5890 5890 5890 5891 5891 5891 5891 5891 5891 5892 5892 5893 5893
5884 5883 5883 5882 5882 5882 5882 5883 5883 5884 5884 5884 5885 5885 5886 5887 5887 5888 5888 5888 5889 5889 5890 5890 5890 5890 5890 5890 5891 5891 5891 5892 5892 5892 5892 5892 5892 5892 5893 5893 5893 5893 5894
5885 5885 5884 5883 5883 5883 5884 5884 5885 5885 5886 5886 5887 5887 5888 5888 5889 5889 5890 5890 5891 5891 5891 5891 5891 5891 5892 5892 5892 5892 5893 5893 5893 5893 5893 5893 5893 5893 5894 5894 5894 5894 5894
5886 5886 5885 5884 5884 5884 5885 5885 5886 5886 5887 5887 5888 5889 5889 5890 5890 5891 5891 5891 5892 5892 5892 5892 5893 5893 5893 5893 5893 5893 5893 5893 5894 5894 5894 5894 5894 5894 5894 5894 5895 5895 5895
5888 5887 5886 5885 5885 5886 5886 5886 5887 5887 5888 5889 5889 5890 5891 5891 5892 5892 5892 5893 5893 5893 5893 5894 5894 5894 5894 5894 5894 5894 5894 5894 5894 5894 5895 5895 5895 5895 5895 5895 5895 5896 5896
5889 5888 5887 5887 5887 5887 5887 5888 5888 5889 5889 5890 5891 5891 5892 5893 5893 5894 5894 5894 5894 5894 5894 5895 5895 5895 5895 5895 5895 5895 5895 5895 5895 5895 5895 5896 5896 5896 5896 5896 5896 5896 5896
5890 5889 5888 5888 5888 5888 5888 5889 5889 5890 5891 5891 5892 5892 5893 5894 5894 5895 5895 5895 5895 5895 5896 5896 5896 5896 5896 5896 5896 5896 5896 5896 5896 5896 5896 5896 5897 5897 5897 5897 5897 5897 5897
5891 5890 5889 5889 5889 5889 5890 5890 5890 5891 5892 5892 5893 5893 5894 5895 5895 5896 5896 5896 5895 5896 5896 5896 5897 5897 5897 5897 5897 5896 5896 5896 5897 5897 5897 5897 5897 5897 5897 5897 5897 5897 5897
5891 5891 5891 5890 5890 5890 5891 5891 5891 5892 5893 5893 5894 5894 5895 5895 5896 5896 5896 5897 5897 5897 5896 5897 5897 5897 5897 5897 5897 5897 5897 5897 5897 5897 5897 5897 5897 5897 5898 5897 5898 5898 5898
5892 5892 5892 5891 5891 5891 5892 5892 5892 5893 5893 5894 5895 5895 5896 5896 5896 5897 5897 5897 5897 5897 5898 5898 5898 5898 5898 5898 5898 5898 5897 5897 5897 5897 5897 5897 5897 5898 5898 5898 5898 5898 5898
5893 5893 5892 5892 5892 5892 5892 5893 5893 5894 5894 5895 5895 5896 5896 5896 5897 5897 5897 5898 5898 5898 5898 5898 5898 5898 5899 5899 5899 5898 5898 5898 5898 5898 5898 5898 5898 5898 5898 5898 5898 5898 5898
5894 5893 5893 5893 5893 5893 5893 5893 5894 5894 5895 5895 5895 5896 5896 5897 5897 5897 5898 5898 5898 5898 5899 5899 5899 5899 5899 5899 5899 5899 5899 5899 5898 5898 5898 5898 5898 5898 5898 5898 5898 5898 5898
5894 5894 5893 5893 5894 5894 5894 5894 5894 5895 5895 5895 5896 5896 5896 5897 5897 5897 5898 5898 5898 5899 5899 5899 5899 5899 5900 5900 5900 5899 5899 5899 5899 5899 5898 5898 5898 5898 5898 5898 5898 5898 5898
5894 5894 5894 5894 5894 5894 5894 5894 5894 5895 5895 5895 5896 5896 5896 5896 5897 5897 5897 5898 5898 5899 5899 5899 5900 5900 5900 5900 5900 5900 5900 5899 5899 5899 5899 5899 5899 5899 5898 5898 5898 5898 5898
5895 5894 5894 5894 5894 5894 5894 5894 5894 5894 5895 5895 5895 5895 5896 5896 5896 5897 5897 5898 5898 5899 5899 5899 5899 5900 5900 5900 5900 5900 5900 5900 5899 5899 5899 5899 5899 5899 5899 5899 5898 5898 5898
5895 5894 5894 5894 5894 5894 5894 5894 5894 5894 5894 5894 5895 5895 5895 5895 5896 5896 5897 5898 5898 5899 5899 5899 5900 5900 5900 5900 5900 5900 5900 5900 5900 5899 5899 5899 5899 5899 5899 5899 5898 5898 5898
5895 5894 5894 5894 5893 5893 5893 5893 5893 5893 5893 5893 5894 5894 5894 5895 5896 5896 5897 5897 5898 5898 5899 5899 5899 5900 5900 5900 5900 5900 5900 5900 5900 5900 5899 5899 5899 5899 5899 5899 5899 5898 5898
5894 5894 5894 5893 5893 5893 5892 5892 5893 5892 5892 5893 5893 5893 5894 5894 5895 5896 5896 5897 5898 5898 5898 5899 5899 5899 5899 5900 5900 5900 5900 5900 5900 5899 5899 5899 5899 5899 5899 5899 5899 5899 5899
5894 5893 5893 5893 5892 5892 5891 5891 5892 5892 5892 5892 5892 5892 5893 5893 5894 5895 5896 5897 5897 5898 5898 5898 5899 5899 5899 5899 5899 5899 5900 5900 5900 5899 5899 5899 5899 5899 5899 5899 5899 5899 5899
5893 5892 5892 5892 5891 5891 5891 5891 5891 5891 5890 5891 5891 5891 5892 5892 5893 5894 5895 5896 5896 5897 5897 5898 5898 5898 5899 5899 5899 5899 5899 5899 5899 5899 5899 5899 5899 5899 5899 5899 5899 5899 5899
5892 5891 5891 5890 5890 5890 5889 5889 5890 5889 5889 5889 5890 5890 5891 5891 5892 5893 5894 5895 5896 5897 5897 5897 5897 5898 5898 5898 5899 5899 5899 5899 5899 5899 5899 5899 5899 5899 5899 5899 5899 5899 5898
5890 5890 5889 5889 5889 5889 5888 5888 5888 5888 5888 5888 5889 5889 5889 5890 5891 5892 5893 5894 5895 5896 5896 5897 5897 5897 5897 5897 5898 5898 5898 5899 5898 5898 5898 5898 5898 5898 5898 5898 5898 5898 5898
5888 5888 5888 5887 5887 5887 5886 5886 5886 5887 5887 5887 5887 5887 5888 5889 5890 5891 5892 5893 5894 5895 5895 5896 5896 5896 5896 5896 5897 5897 5897 5897 5897 5897 5897 5897 5898 5898 5898 5898 5898 5898 5898
5887 5886 5886 5886 5885 5885 5885 5885 5885 5885 5885 5886 5886 5886 5886 5887 5888 5889 5890 5892 5893 5893 5894 5894 5895 5895 5895 5895 5896 5896 5896 5896 5896 5896 5896 5896 5896 5896 5897 5897 5897 5897 5897
5884 5884 5884 5884 5883 5883 5883 5883 5883 5883 5883 5884 5884 5884 5885 5886 5887 5887 5889 5890 5891 5892 5892 5893 5893 5894 5894 5894 5894 5895 5895 5895 5895 5895 5895 5895 5895 5895 5895 5895 5895 5895 5895
5882 5882 5881 5881 5881 5881 5881 5881 5880 5881 5881 5881 5882 5882 5883 5884 5884 5885 5886 5887 5888 5889 5890 5891 5892 5892 5892 5892 5893 5893 5893 5893 5893 5893 5893 5893 5893 5893 5893 5893 5893 5894 5894